Regional Weather Roundup
Issued by NWS Northern Indiana

Home | Current Version | Previous Version | Graphics & Text | Print | Product List | Glossary On
Versions: 1 2 3 4 5 6 7 8 9 10 11 12 13 14 15 16 17 18 19 20 21 22 23 24 25 26 27 28 29 30 31 32 33 34 35 36 37 38 39 40 41 42 43 44 45 46 47 48 49 50
000
ASUS43 KIWX 290110
RWRIWX

KIWX WEATHER ROUNDUP
NATIONAL WEATHER SERVICE NORTHERN INDIANA
800 PM EST FRI NOV 28 2014

NOTE: "FAIR" INDICATES FEW OR NO CLOUDS BELOW 12,000 FEET WITH NO
SIGNIFICANT WEATHER AND/OR OBSTRUCTIONS TO VISIBILITY.

* THESE STATIONS ARE NOT UNDER NWS QUALITY CONTROL. THEY ALSO MAY NOT
  REPORT WEATHER SUCH AS PRECIPITATION OR FOG.

INZ001>027-290200-
NORTHERN INDIANA

CITY           SKY/WX    TMP DP  RH WIND       PRES   REMARKS
GARY*          CLOUDY    34  25  69 SE8       30.00F WCI  27
VALPARAISO     CLOUDY    30  21  69 SE10      30.02S WCI  21
MICHIGAN CITY* CLOUDY    30  19  64 S8        30.02F WCI  23
LAPORTE*       CLOUDY    32  24  72 SE8       30.03F WCI  24
KNOX*          MOCLDY    30  22  72 SE12      30.03S WCI  20
SOUTH BEND     CLOUDY    30  21  69 S14       30.05F WCI  19
GOSHEN         MOCLDY    29  19  66 S9        30.06S WCI  20
MONTICELLO*    MOCLDY    32  24  72 SE7       30.03F WCI  25
LOGANSPORT*    CLOUDY    30  23  74 SE10      30.06F WCI  21
ROCHESTER*     MOCLDY    32  25  74 S10       30.06F WCI  24
WARSAW*        MOCLDY    30  21  69 S6        30.06S WCI  24
ANGOLA*        CLOUDY    27  19  74 S9        30.06S WCI  17
FORT WAYNE     MOCLDY    29  20  69 S9        30.09F WCI  20
HUNTINGTON*    MOCLDY    30  20  66 S8        30.08S WCI  23
PERU/GRISSOM   CLOUDY    31  25  80 S12       30.06S WCI  21
MARION*          N/A     30  20  65 S10       30.08F WCI  21

$$
INZ028>050-290200-
CENTRAL INDIANA

CITY           SKY/WX    TMP DP  RH WIND       PRES   REMARKS
LAFAYETTE      PTCLDY    32  24  72 SE8       30.04F WCI  25
KOKOMO*        CLOUDY    30  21  69 S15       30.07S WCI  19
MUNCIE*        PTCLDY    32  17  54 S14       30.08F WCI  22
INDIANAPOLIS   CLOUDY    32  22  66 SE8       30.06F WCI  25

$$
MIZ043>046-050>051-056>058-064>065-071>073-077>080-290200-
SOUTHWEST LOWER MICHIGAN

CITY           SKY/WX    TMP DP  RH WIND       PRES   REMARKS
BATTLE CREEK   CLOUDY    29  19  66 S12       30.05F WCI  19
BENTON HARBOR  MOCLDY    27  20  75 SE10      30.02F WCI  17
COLDWATER*     CLOUDY    30  22  73 S9        30.07R WCI  21
HILLSDALE*     CLOUDY    27  23  84 SE8       30.05F WCI  19
HOLLAND        CLOUDY    29  20  69 SE10      30.03F WCI  20
GRAND RAPIDS   CLOUDY    26  19  74 SE9       30.05F WCI  17
KALAMAZOO      PTCLDY    27  19  72 S6        30.06S WCI  20
STURGIS*       MOCLDY    28  21  74 S8        30.05F WCI  20
THREE RIVERS*  FAIR      29  21  73 S8        30.07S WCI  21

$$
OHZ001>008-015>018-024>025-290200-
NORTHWEST OHIO

CITY           SKY/WX    TMP DP  RH WIND       PRES   REMARKS
WAUSEON*       CLOUDY    28  23  80 SE9       30.10F WCI  20
DEFIANCE       CLOUDY    31  21  66 S9        30.11F WCI  23
FINDLAY        MOCLDY    32  22  66 S14       30.11F WCI  22
TOLEDO EXPRESS CLOUDY    27  21  78 SE6       30.11F WCI  20
TOLEDO METCALF CLOUDY    28  22  78 SE8       30.14F WCI  20
LIMA           CLOUDY    32  20  61 S15       30.10F WCI  22

$$
AND FOR LAKE MICHIGAN COASTAL AND OPEN LAKE BUOY OBSERVATIONS

STATION/POSITION TEMP    WIND        PRES    VSBY  WAVE
                 AIR SEA DIR/SP/G                  HT/PER
                 (F)     (DEG/KT/KT) (MB)    (MI)  (FT/S)
CALUMET HARBOR    32     150/  9/ 13 1014.3F
MICHIGAN CITY     30     130/ 15/ 17   N/A
SAINT JOSEPH      29     160/  3/  8 1017.3R
SOUTH LAKE BUOY   35 42  180/ 23/ 27 1015.5F         6/ 6

$$
&&



USA.gov is the U.S. government's official web portal to all federal, state and local government web resources and services.